OBJECT AX, 57323

Orbit data source: Space-Track

You're viewing an Uncataloged Satellite

Recently launched and/or uncataloged satellites may have evolving metadata. Metadata may include but not limited to: Owner, Maufacturer, Bus, Motor, and Mission.

OBJECT AX, 57323 is a satellite in SSO that was launched on Tue, 27 Jun 2023 UTC via a SOYUZ-2-1B launch vehicle from the Vostochny Cosmodrome (VOSTO). Unknown objects in Earth's orbit typically refer to objects detected orbiting the Earth but have not yet been identified or cataloged. These objects could be anything from previously untracked satellites, spent rocket stages, debris from satellite collisions, or even natural meteoroids temporarily captured by Earth's gravity.

Loading next visibility...
Identifier
57323, 2023-091AX
Orbit
SSO
Country
Flag of TBDTBD
Related business
Flag of RUOOO Stratonavtika (RU)
Manufacturer
MKS
Mission
Commercial Communications
Bus & Motor
TINYSAT 1TU, Unknown motor
Mass
0.125 kg wet, 0.125 kg dry
Launch date (UTC)
2023-06-27 (3 years ago)
Launch vehicle
SOYUZ-2-1B
Launch site
Vostochny Cosmodrome (VOSTO)
Object type
Unknown
Shape & HBR
Box, 0.0 m
Radar Cross Section
0.004 m², Small (<0.1 m²)

Expand to show TLE details & history
Last TLE update: 1 day ago

TLE from 1 day ago
0 OBJECT AX
1 57323U 23091AX  26105.13888249  .00220506  00000-0  10264-2 0  9992
2 57323  97.5005 185.0098 0007715 248.0333 112.0116 15.82734267153671
Epoch: 2026-04-15T03:19Z
TLE epoch observation values (Epoch: 2026-04-15T03:19:59.447Z)
Latitude
-0.00001°
Longitude
-68.29297°
Altitude
327.826 km
Speed
7.711 km/s
True Right ascension
12h 20m 02s
True Declination
0° 00' 00"
Sunlit
Object was in full shadow at epoch
Visualization orbit readout
Latitude
Unknown
Longitude
Unknown
Altitude
Unknown
Speed
Unknown
Apparent Right ascension
Unknown
Apparent Declination
Unknown
Sunlit
N/A
Visualization observer readout
Local Sidereal Time
16:24:43
Azimuth
Unknown
Elevation
Unknown
Doppler factor
Unknown
Orbital elements
Apogee altitude
324.766 km
Perigee altitude
314.432 km
Semi-major axis
6,697.736 km
Eccentricity
0.00077
Inclination
97.5005°
RAAN
185.0098°
Arg. of periapsis
248.0333°
True anomaly
112.09353°
Mean anomaly
112.0116°
Eccentric anomaly
112.05257°
Mean motion
3.9596 °/min
Orbital period
90.92 mins
BSTAR
0.0010264
Loading maneuver chart data...
Computing Atmospheric mass density...
Loading historical data...
Loading historical data...
Loading historical data...
Loading historical data...
Loading historical data...
Loading historical data...
Loading historical data...

Documentation

Showing up to 5 results
|